User: anonymous   Login
Location: Poughquag
(41.6090°N, 73.6820°W)
Time: 07:20:02
(UTC-04:00)
Language:

Vanguard 2 Rocket - Orbit

View from above orbital plane
View from above orbital plane
View from above satellite
View from above satellite

Ground track
Ground track

The orbit data is extracted from the following two-line orbital elements,

1    12U 59001B   20149.84310572 -.00000049 +00000-0 -37761-4 0  9997
2    12 032.9063 059.5509 1664917 332.7983 019.4149 11.44291668277736
Epoch (UTC): 28 May 2020 20:14:04
Eccentricity: 0.1664917
inclination: 32.9063°
perigee height: 555 km
apogee height: 3325 km
right ascension of ascending node: 59.5509°
argument of perigee: 332.7983°
revolutions per day: 11.44291668
mean anomaly at epoch: 19.4149°
orbit number at epoch: 27773

The dashed part of the orbit path shows where the satellite is in the earth's shadow,  

DLR